{"data":{"norad_id":55048,"epoch":"2026-05-25T03:35:39.325344Z","epoch_age_seconds":59123,"freshness":"FRESH","line1":"1 55048U 23001AR  26145.14976071  .00013028  00000+0  39187-3 0  9995","line2":"2 55048  97.1872 198.4745 0011881 174.7051 185.4320 15.34435506188871","mean_motion":15.34435506,"eccentricity":0.0011881,"inclination_deg":97.1872,"raan_deg":198.4745,"arg_perigee_deg":174.7051,"mean_anomaly_deg":185.432,"bstar":0.00039187,"rev_number":18887,"period_min":93.845586495442,"perigee_km":454.47023401745,"apogee_km":470.72518783756,"semimajor_km":6840.7347109275,"source":"CELESTRAK","updated_at":"2026-05-25T13:37:58.811789Z"}}